Date String (YYYY-MM-DD hh:mm:ss) UTC,Instrument flags,Ambient pressure (hPa),Sample flow (lpm),Bypass flow (lpm),Sample temperature (°C),Ambient temperature (°C),ASC tube jacket temperature (°C),LED temperature (°C),Box temperature (°C),Sample RH (%),Span deviation,Mass concentration (μg/m³),Mass concentration (μg/m³),Mass concentration (μg/m³)
DateTimeUTC,F1_M11,P_M11,Q1_M11,Q2_M11,T1_M11,T2_M11,T3_M11,T4_M11,T5_M11,U1_M11,ZSPAN_M11,X0_M11,X2_M11,X1_M11
2023-02-11 13:00:00,,0826.7,4.98,0.00,22.0,21.8,00.0,30.9,23.9,08.8,0000.0,0012.60,0004.85,0003.75
2023-02-11 13:01:00,,0826.7,4.99,0.00,22.1,22.6,00.0,30.9,24.1,08.7,0000.0,0011.90,0004.67,0003.65
2023-02-11 13:02:00,,0826.7,5.01,0.00,22.2,22.1,00.0,31.0,24.1,08.6,0000.0,0011.42,0004.48,0003.54
2023-02-11 13:03:00,,0826.7,5.03,0.00,22.2,21.5,00.0,31.0,23.9,08.7,0000.0,0011.20,0004.30,0003.46
2023-02-11 13:04:00,,0826.7,5.05,0.00,22.1,21.1,00.0,31.0,23.8,08.7,0000.0,0010.27,0004.14,0003.35
2023-02-11 13:05:00,,0826.7,4.96,0.00,22.1,20.9,00.0,31.0,23.8,08.7,0000.0,0009.91,0004.04,0003.28
2023-02-11 13:06:00,,0826.7,5.04,0.00,22.1,20.7,00.0,31.0,23.8,08.7,0000.0,0010.40,0003.93,0003.20
2023-02-11 13:07:00,,0826.7,5.02,0.00,22.1,20.5,00.0,31.0,23.7,08.6,0000.0,0010.42,0003.85,0003.14
2023-02-11 13:08:00,,0826.8,5.02,0.00,22.0,20.1,00.0,31.0,23.5,08.6,0000.0,0010.92,0003.76,0003.03
2023-02-11 13:09:00,,0826.7,4.99,0.00,21.9,19.9,00.0,31.0,23.3,08.7,0000.0,0011.53,0003.66,0002.90
2023-02-11 13:10:00,,0826.7,5.00,0.00,21.8,19.7,00.0,30.9,23.3,08.6,0000.0,0011.32,0003.57,0002.81
2023-02-11 13:11:00,,0826.7,5.00,0.00,21.8,20.2,00.0,30.9,23.4,08.9,0000.0,0011.64,0003.61,0002.85
2023-02-11 13:12:00,,0826.7,5.02,0.00,21.9,21.4,00.0,30.8,23.7,08.8,0000.0,0012.12,0003.69,0002.92
2023-02-11 13:13:00,,0826.7,4.97,0.00,22.1,22.5,00.0,30.8,24.0,08.7,0000.0,0011.98,0003.70,0002.94
2023-02-11 13:14:00,,0826.7,4.99,0.00,22.2,22.9,00.0,30.9,24.2,08.6,0000.0,0011.43,0003.68,0002.92
2023-02-11 13:15:00,,0826.7,5.00,0.00,22.2,22.2,00.0,30.9,24.0,08.5,0000.0,0011.26,0003.67,0002.92
2023-02-11 13:16:00,,0826.8,5.00,0.00,22.1,21.5,00.0,31.0,23.8,08.5,0000.0,0011.17,0003.66,0002.90
2023-02-11 13:17:00,,0826.7,5.01,0.00,22.1,20.9,00.0,31.0,23.7,08.5,0000.0,0010.44,0003.61,0002.87
2023-02-11 13:18:00,,0826.7,5.02,0.00,22.0,20.5,00.0,31.0,23.5,08.5,0000.0,0010.71,0003.59,0002.84
2023-02-11 13:19:00,,0826.7,5.00,0.00,21.9,20.2,00.0,31.0,23.4,08.5,0000.0,0010.33,0003.56,0002.81
2023-02-11 13:20:00,,0826.7,5.02,0.00,21.9,20.0,00.0,30.9,23.4,08.6,0000.0,0009.45,0003.50,0002.77
2023-02-11 13:21:00,,0826.7,4.98,0.00,21.9,19.9,00.0,30.9,23.4,08.6,0000.0,0009.04,0003.51,0002.77
2023-02-11 13:22:00,,0826.7,4.97,0.00,21.8,19.7,00.0,30.9,23.3,08.6,0000.0,0009.19,0003.53,0002.78
2023-02-11 13:23:00,,0826.7,5.01,0.00,21.7,19.6,00.0,30.9,23.2,08.6,0000.0,0009.55,0003.48,0002.70
2023-02-11 13:24:00,,0826.7,5.04,0.00,21.7,20.4,00.0,30.8,23.4,08.6,0000.0,0010.03,0003.44,0002.65
2023-02-11 13:25:00,,0826.7,4.99,0.00,21.9,21.8,00.0,30.8,23.8,08.5,0000.0,0010.69,0003.41,0002.62
2023-02-11 13:26:00,,0826.7,4.97,0.00,22.0,22.8,00.0,30.8,24.0,08.5,0000.0,0010.98,0003.38,0002.59
2023-02-11 13:27:00,,0826.7,4.95,0.00,22.1,22.4,00.0,30.9,24.1,08.5,0000.0,0011.02,0003.33,0002.58
2023-02-11 13:28:00,,0826.7,5.02,0.00,22.1,21.9,00.0,30.9,24.0,08.5,0000.0,0011.58,0003.37,0002.61
2023-02-11 13:29:00,,0826.7,4.95,0.00,22.1,21.5,00.0,30.9,23.9,08.5,0000.0,0011.19,0003.39,0002.63
2023-02-11 13:30:00,,0826.7,4.99,0.00,22.1,21.1,00.0,30.9,23.8,08.5,0000.0,0011.01,0003.41,0002.64
2023-02-11 13:31:00,,0826.6,4.99,0.00,22.0,20.7,00.0,30.9,23.6,08.5,0000.0,0010.93,0003.37,0002.59
2023-02-11 13:32:00,,0826.6,4.98,0.00,22.0,20.3,00.0,30.9,23.5,08.4,0000.0,0010.72,0003.28,0002.49
2023-02-11 13:33:00,,0826.6,4.99,0.00,21.9,20.1,00.0,30.9,23.4,08.5,0000.0,0010.02,0003.20,0002.43
2023-02-11 13:34:00,,0826.7,5.00,0.00,21.9,20.0,00.0,30.9,23.4,08.5,0000.0,0008.80,0003.06,0002.34
2023-02-11 13:35:00,,0826.7,5.01,0.00,21.8,19.8,00.0,30.9,23.3,08.5,0000.0,0008.09,0003.00,0002.31
2023-02-11 13:36:00,,0826.6,5.01,0.00,21.8,19.7,00.0,30.8,23.3,08.6,0000.0,0007.42,0002.99,0002.30
2023-02-11 13:37:00,,0826.6,4.98,0.00,21.8,20.7,00.0,30.8,23.5,08.6,0000.0,0006.22,0002.93,0002.28
2023-02-11 13:38:00,,0826.5,4.98,0.00,21.9,22.1,00.0,30.8,23.9,08.4,0000.0,0006.16,0002.90,0002.25
2023-02-11 13:39:00,,0826.6,4.99,0.00,22.1,22.8,00.0,30.8,24.1,08.2,0000.0,0004.62,0002.71,0002.16
2023-02-11 13:40:00,,0826.5,5.02,0.00,22.1,22.1,00.0,30.9,24.0,08.2,0000.0,0004.23,0002.56,0002.07
2023-02-11 13:41:00,,0826.5,5.03,0.00,22.1,21.5,00.0,30.9,23.9,08.2,0000.0,0003.89,0002.43,0001.99
2023-02-11 13:42:00,,0826.5,5.08,0.00,22.1,21.0,00.0,30.9,23.8,08.2,0000.0,0003.73,0002.38,0001.97
2023-02-11 13:43:00,,0826.5,4.99,0.00,22.0,20.7,00.0,30.9,23.7,08.3,0000.0,0003.97,0002.44,0002.00
2023-02-11 13:44:00,,0826.5,5.00,0.00,22.0,20.5,00.0,30.9,23.6,08.6,0000.0,0005.07,0002.47,0002.02
2023-02-11 13:45:00,,0826.5,5.03,0.00,21.9,20.2,00.0,30.9,23.5,08.4,0000.0,0005.26,0002.53,0002.06
2023-02-11 13:46:00,,0826.5,5.01,0.00,21.9,19.9,00.0,30.9,23.3,08.4,0000.0,0005.33,0002.56,0002.07
2023-02-11 13:47:00,,0826.6,4.98,0.00,21.8,19.6,00.0,30.8,23.1,08.4,0000.0,0005.55,0002.58,0002.07
2023-02-11 13:48:00,,0826.5,5.00,0.00,21.7,19.7,00.0,30.8,23.2,08.4,0000.0,0005.78,0002.56,0002.03
2023-02-11 13:49:00,,0826.5,5.04,0.00,21.8,21.0,00.0,30.7,23.5,08.3,0000.0,0005.60,0002.49,0001.97
2023-02-11 13:50:00,,0826.5,5.01,0.00,21.9,22.3,00.0,30.7,23.9,08.2,0000.0,0005.50,0002.44,0001.93
2023-02-11 13:51:00,,0826.5,4.98,0.00,22.0,22.5,00.0,30.8,24.0,08.2,0000.0,0005.51,0002.40,0001.91
2023-02-11 13:52:00,,0826.5,5.00,0.00,22.0,21.7,00.0,30.8,23.8,08.2,0000.0,0005.53,0002.42,0001.91
2023-02-11 13:53:00,,0826.5,5.06,0.00,22.0,21.1,00.0,30.8,23.7,08.3,0000.0,0005.73,0002.48,0001.94
2023-02-11 13:54:00,,0826.5,4.95,0.00,21.9,20.7,00.0,30.8,23.5,08.3,0000.0,0005.50,0002.41,0001.91
2023-02-11 13:55:00,,0826.5,4.99,0.00,21.9,20.3,00.0,30.8,23.4,08.3,0000.0,0004.67,0002.39,0001.90
2023-02-11 13:56:00,,0826.5,5.03,0.00,21.8,20.1,00.0,30.8,23.3,08.3,0000.0,0004.99,0002.35,0001.85
2023-02-11 13:57:00,,0826.5,5.02,0.00,21.8,19.9,00.0,30.8,23.3,08.4,0000.0,0005.76,0002.23,0001.74
2023-02-11 13:58:00,,0826.5,5.00,0.00,21.7,19.8,00.0,30.8,23.2,08.5,0000.0,0005.41,0002.04,0001.61
2023-02-11 13:59:00,,0826.5,5.01,0.00,21.7,19.7,00.0,30.8,23.2,08.4,0000.0,0004.99,0001.90,0001.52
